[[{"header":{"parameterUnit":"m.s-1","parameterCategory":1,"la1":30.2991,"la2":30.254,"lo1":-89.0895,"lo2":-89.0444,"dy":0.0017,"dx":0.0017,"nx":28,"ny":28,"refTime":"2024-06-16T03:00:00:Z","depth":0,"parameterNumber":2,"parameterNumberName":"U-component_of_WINDS"},"data":[0,0,0,0,0,0,0,0,0,0,0,0,0,0,0,0,0,0,0,0,0,0,0,0,0,0,0,0,0,0,0,0,0,0,0,0,0,0,0,0,0,0,0,0,0,0,0,0,0,0,0,0,0,0,0,0,0,0,-7.183,-7.183,0,-7.1864,-7.1865,-7.1865,-7.1761,-7.1757,-7.1754,-7.1751,-7.1782,-7.1786,-7.179,0,0,0,0,0,0,0,0,0,0,0,0,0,-7.167,-7.1673,-7.183,-7.183,-7.1831,-7.1864,-7.1865,-7.1865,-7.1761,-7.1757,-7.1753,-7.175,-7.1781,-7.1786,-7.179,0,0,0,0,0,0,0,0,0,0,0,0,0,-7.1725,-7.1675,-7.183,-7.1783,-7.1779,-7.1864,-7.1865,-7.1865,-7.1762,-7.1757,-7.1752,-7.1748,-7.178,-7.1785,-7.1791,-7.1921,0,0,-7.1808,-7.1811,0,0,0,0,0,0,0,0,-7.1722,-7.1731,-7.1789,-7.1786,-7.1782,-7.1803,-7.182,-7.1884,-7.1763,-7.1768,-7.1751,-7.1746,-7.1793,-7.1797,-7.1814,-7.1923,-7.1924,-7.1809,-7.1812,-7.1815,-7.1816,0,0,0,0,0,0,0,-7.1719,-7.1729,-7.1843,-7.179,-7.1786,-7.1759,-7.1762,-7.1831,-7.1807,-7.1768,-7.176,-7.1766,-7.179,-7.1809,-7.1814,-7.1925,-7.1809,-7.1814,-7.1817,-7.1819,-7.2141,-7.2146,0,0,0,0,0,0,-7.1721,-7.1727,-7.1842,-7.1844,-7.174,-7.1766,-7.1769,-7.1801,-7.1806,-7.1802,-7.177,-7.1761,-7.1801,-7.1808,-7.1815,-7.1966,-7.1815,-7.182,-7.1823,-7.2136,-7.2142,-7.2148,0,0,0,0,0,0,-7.1718,-7.1733,-7.1841,-7.1784,-7.1795,-7.1774,-7.1811,-7.1805,-7.1823,-7.1808,-7.1802,-7.1794,-7.1798,-7.1807,-7.1896,-7.1966,-7.1822,-7.1828,-7.213,-7.2138,-7.2145,-7.2272,0,0,0,0,0,0,-7.1714,-7.1732,-7.1782,-7.1786,-7.1799,-7.1923,-7.1816,-7.1809,-7.1834,-7.1822,-7.1829,-7.1825,-7.1795,-7.1888,-7.1901,-7.1971,-7.1832,-7.2124,-7.2134,-7.2143,-7.2261,-7.2283,-7.2301,0,0,0,0,0,-7.1709,-7.1816,-7.1785,-7.18,-7.1861,-7.1927,-7.1934,-7.1898,-7.184,-7.1889,-7.188,-7.1825,-7.1957,-7.1898,-7.1912,-7.1985,-7.2119,-7.2131,-7.2142,-7.2252,-7.2278,-7.2301,0,0,0,0,0,0,-7.1819,-7.1815,-7.1781,-7.1893,-7.1911,-7.1909,-7.197,-7.1928,-7.1962,-7.1949,-7.1902,-7.1905,-7.2002,-7.2003,-7.1937,-7.2111,-7.2028,-7.2043,-7.2106,-7.2131,-7.2151,-7.2147,-7.1837,0,0,0,0,0,-7.1857,-7.1912,-7.1905,-7.2004,-7.2015,-7.1992,-7.2019,-7.199,-7.2006,-7.2013,-7.201,-7.2027,-7.2072,-7.2102,-7.2143,-7.2262,-7.2261,-7.2319,-7.2339,-7.2356,-7.2368,-7.243,-7.2455,-7.2186,-7.2186,-7.2186,0,0,-7.1935,-7.1939,-7.1976,-7.2027,-7.2037,-7.2094,-7.1999,-7.2062,-7.2103,-7.2022,-7.2105,-7.2105,-7.212,-7.2225,-7.227,-7.2228,-7.2443,-7.2371,-7.2384,-7.2387,-7.2444,-7.247,-7.2492,-7.2194,-7.2192,-7.2191,0,0,-7.2104,-7.2115,-7.2197,-7.2211,-7.2229,-7.2213,-7.2233,-7.2238,-7.2234,-7.2318,-7.2258,-7.2306,-7.2386,-7.2399,-7.2416,-7.2593,-7.2543,-7.2608,-7.2712,-7.2772,-7.2793,-7.2812,-7.2873,-7.2895,-7.2621,-7.2622,-7.2622,0,-7.2197,-7.2281,-7.2245,-7.2313,-7.2336,-7.2268,-7.2351,-7.2365,-7.2395,-7.2412,-7.2365,-7.2463,-7.2469,-7.2575,-7.2619,-7.2636,-7.2656,-7.2605,-7.2794,-7.2812,-7.2828,-7.2886,-7.2909,-7.2629,-7.2628,-7.2628,-7.2627,0,-7.2394,-7.2453,-7.2518,-7.255,-7.2581,-7.2656,-7.263,-7.2666,-7.2635,-7.2624,-7.271,-7.2715,-7.2755,-7.2779,-7.275,-7.2881,-7.2854,-7.2802,-7.2716,-7.2862,-7.2915,-7.2937,-7.264,-7.2637,-7.2635,-7.2633,0,0,-7.263,-7.2643,-7.2667,-7.2681,-7.2698,-7.2742,-7.2814,-7.2855,-7.2885,-7.291,-7.2967,-7.3037,-7.2989,-7.3009,-7.298,-7.3034,-7.3172,-7.2975,-7.2974,-7.3009,-7.3315,-7.3351,-7.3378,-7.3141,-7.3145,-7.3148,-7.3312,0,-7.2794,-7.2919,-7.2889,-7.3012,-7.3065,-7.3003,-7.3065,-7.3082,-7.3074,-7.3117,-7.3108,-7.3157,-7.3091,-7.3102,-7.3153,-7.3144,-7.3232,-7.3133,-7.3191,-7.3194,-7.3186,-7.3406,-7.3445,-7.3599,-7.3333,-7.3337,-7.3339,0,-7.3002,-7.3036,-7.3164,-7.3172,-7.3193,-7.325,-7.3285,-7.3329,-7.3346,-7.3336,-7.336,-7.3321,-7.3391,-7.3309,-7.3404,-7.3337,-7.336,-7.3359,-7.3364,-7.3365,-7.3273,-7.3409,-7.3647,-7.367,-7.3372,-7.3369,-7.3367,0,-7.3158,-7.3236,-7.3322,-7.3336,-7.3348,-7.339,-7.3396,-7.3409,-7.3436,-7.3467,-7.3483,-7.3522,-7.3542,-7.3573,-7.3545,-7.3488,-7.3644,-7.3559,-7.3635,-7.3636,-7.3667,-7.3665,-7.3909,-7.3689,-7.3688,-7.3688,-7.3688,0,-7.3342,-7.3423,-7.3392,-7.3445,-7.3533,-7.3498,-7.3586,-7.3585,-7.3598,-7.3648,-7.3598,-7.3646,-7.3608,-7.3653,-7.3633,-7.3713,-7.3724,-7.3716,-7.3709,-7.3719,-7.3719,-7.373,-7.3717,-7.3694,-7.3693,-7.3692,-7.3691,0,-7.3529,-7.3513,-7.3602,-7.3608,-7.3611,-7.3675,-7.3679,-7.3727,-7.3717,-7.3782,-7.3795,-7.3779,-7.3829,-7.3806,-7.3858,-7.3844,-7.3947,-7.3927,-7.3941,-7.3935,-7.4011,-7.4003,-7.4268,-7.43,-7.4062,-7.4065,-7.4067,0,-7.3646,-7.3707,-7.372,-7.3751,-7.3761,-7.3812,-7.384,-7.3809,-7.3839,-7.3865,-7.391,-7.3956,-7.3991,-7.4074,-7.4066,-7.4106,-7.4085,-7.4175,-7.409,-7.4098,-7.4082,-7.4077,-7.4082,-7.419,-7.4193,-7.4195,-7.4197,0,-7.3855,-7.3844,-7.3887,-7.3927,-7.3962,-7.3992,-7.4016,-7.4045,-7.4015,-7.4052,-7.4103,-7.4131,-7.4186,-7.4231,-7.4267,-7.4272,-7.4229,-7.4225,-7.4244,-7.4252,-7.4257,-7.4253,-7.3984,-7.4218,-7.4216,-7.4214,-7.4213,-7.4212,-7.4008,-7.4059,-7.4076,-7.4125,-7.4141,-7.4166,-7.4212,-7.4209,-7.4252,-7.4294,-7.4274,-7.4333,-7.4349,-7.4393,-7.4404,-7.4449,-7.4413,-7.4442,-7.4448,-7.4455,-7.4464,-7.4254,-7.4456,-7.4456,-7.4455,-7.4455,-7.4454,0,-7.4211,-7.422,-7.4266,-7.4303,-7.4342,-7.4302,-7.4328,-7.4362,-7.4416,-7.4435,-7.4472,-7.4531,-7.4576,-7.4573,-7.4614,-7.465,-7.4632,-7.4662,-7.4657,-7.4658,-7.4495,-7.4473,-7.4676,-7.4676,-7.4676,-7.4676,-7.4676,-7.4676,-7.4321,-7.4404,-7.4396,-7.4486,-7.4494,-7.4553,-7.4571,-7.4594,-7.4609,-7.4678,-7.4716,-7.4714,-7.4724,-7.4766,-7.4805,-7.4803,-7.4818,-7.4855,-7.4846,-7.4692,-7.467,-7.4649,-7.4628,-7.486,-7.486,-7.5004,-7.5006,-7.5007]},{"header":{"parameterUnit":"m.s-1","parameterCategory":1,"la1":30.2991,"la2":30.254,"lo1":-89.0895,"lo2":-89.0444,"dy":0.0017,"dx":0.0017,"nx":28,"ny":28,"refTime":"2024-06-16T03:00:00:Z","depth":0,"parameterNumber":3,"parameterNumberName":"V-component_of_WINDS"},"data":[0,0,0,0,0,0,0,0,0,0,0,0,0,0,0,0,0,0,0,0,0,0,0,0,0,0,0,0,0,0,0,0,0,0,0,0,0,0,0,0,0,0,0,0,0,0,0,0,0,0,0,0,0,0,0,0,0,0,2.4518,2.4519,0,2.4534,2.4534,2.4534,2.454,2.454,2.454,2.454,2.4552,2.4552,2.4553,0,0,0,0,0,0,0,0,0,0,0,0,0,2.4492,2.4492,2.4518,2.4519,2.4519,2.4534,2.4534,2.4534,2.454,2.454,2.454,2.454,2.4552,2.4552,2.4553,0,0,0,0,0,0,0,0,0,0,0,0,0,2.4505,2.4492,2.4518,2.4524,2.4524,2.4534,2.4534,2.4534,2.454,2.454,2.454,2.454,2.4552,2.4552,2.4553,2.4557,0,0,2.4554,2.4555,0,0,0,0,0,0,0,0,2.4504,2.4506,2.4523,2.4523,2.4524,2.4535,2.4529,2.4542,2.454,2.4534,2.454,2.454,2.4546,2.4547,2.455,2.4558,2.4558,2.4554,2.4555,2.4555,2.4555,0,0,0,0,0,0,0,2.4503,2.4505,2.4524,2.4523,2.4524,2.4525,2.4526,2.4532,2.454,2.4535,2.4535,2.4537,2.4546,2.455,2.455,2.4558,2.4554,2.4555,2.4555,2.4555,2.4572,2.4573,0,0,0,0,0,0,2.4502,2.4504,2.4524,2.4525,2.4514,2.4525,2.4527,2.4532,2.454,2.4541,2.4537,2.4537,2.4549,2.455,2.4551,2.4558,2.4555,2.4555,2.4556,2.4572,2.4572,2.4573,0,0,0,0,0,0,2.4501,2.4503,2.4523,2.4515,2.4517,2.4526,2.4531,2.4532,2.4535,2.4542,2.4543,2.4539,2.4549,2.455,2.4556,2.4558,2.4556,2.4556,2.4572,2.4572,2.4573,2.4571,0,0,0,0,0,0,2.45,2.4503,2.4505,2.4515,2.4518,2.4529,2.4531,2.4532,2.4536,2.4537,2.4544,2.4545,2.4549,2.4555,2.4557,2.4559,2.4557,2.4572,2.4572,2.4572,2.4571,2.4571,2.4571,0,0,0,0,0,2.4499,2.4503,2.4505,2.4508,2.4521,2.4529,2.4531,2.4536,2.4536,2.4538,2.4543,2.4545,2.4558,2.4556,2.4558,2.456,2.4572,2.4572,2.4572,2.4571,2.4571,2.4571,0,0,0,0,0,0,2.4491,2.4504,2.4507,2.4514,2.4521,2.453,2.4532,2.4536,2.4542,2.4541,2.4547,2.4548,2.4554,2.4558,2.4555,2.4566,2.4565,2.4566,2.4563,2.4563,2.4564,2.4562,2.4557,0,0,0,0,0,2.449,2.4497,2.4507,2.4512,2.4516,2.4524,2.4528,2.4532,2.4538,2.4541,2.4546,2.4551,2.4557,2.456,2.4566,2.4572,2.4574,2.4574,2.4574,2.4574,2.4575,2.4579,2.458,2.4574,2.4574,2.4574,0,0,2.4488,2.4496,2.4499,2.4511,2.4517,2.4523,2.4526,2.4532,2.4537,2.4541,2.4548,2.4552,2.4559,2.4565,2.4568,2.4568,2.4577,2.4575,2.4575,2.4575,2.458,2.458,2.4581,2.4574,2.4574,2.4574,0,0,2.4487,2.4494,2.45,2.4506,2.4516,2.4522,2.4523,2.4533,2.4536,2.4544,2.4548,2.4553,2.4562,2.4568,2.4571,2.4576,2.4578,2.4578,2.4578,2.4583,2.4583,2.4584,2.4586,2.4587,2.4578,2.4578,2.4578,0,2.4483,2.4494,2.4502,2.4509,2.4514,2.4521,2.4527,2.4532,2.4542,2.4545,2.4546,2.4559,2.4564,2.4572,2.4574,2.4576,2.4578,2.4576,2.4583,2.4583,2.4584,2.4586,2.4587,2.4578,2.4578,2.4578,2.4578,0,2.4488,2.4496,2.4499,2.4512,2.4517,2.4523,2.4532,2.4537,2.4541,2.4547,2.4555,2.4562,2.4569,2.4572,2.4574,2.4581,2.4581,2.4582,2.4581,2.4584,2.4587,2.4588,2.4578,2.4578,2.4578,2.4578,0,0,2.4481,2.45,2.4501,2.4507,2.452,2.4525,2.4532,2.4542,2.4546,2.4554,2.456,2.4569,2.4571,2.4575,2.4579,2.4583,2.4588,2.4584,2.4584,2.4585,2.4597,2.4596,2.4597,2.459,2.459,2.459,2.4596,0,2.4482,2.4496,2.4505,2.4515,2.4523,2.4531,2.4537,2.4545,2.4551,2.4558,2.4564,2.4571,2.4573,2.4576,2.458,2.4586,2.459,2.4586,2.4595,2.4595,2.4593,2.4598,2.4596,2.4602,2.4597,2.4597,2.4597,0,2.4485,2.4495,2.4507,2.4521,2.4524,2.453,2.454,2.4547,2.4557,2.4561,2.4567,2.4572,2.458,2.458,2.4591,2.4588,2.4592,2.4596,2.4596,2.4597,2.4596,2.4599,2.4604,2.4605,2.4599,2.4599,2.4598,0,2.4479,2.4495,2.4505,2.451,2.4526,2.453,2.4537,2.4547,2.4553,2.4562,2.4566,2.4575,2.458,2.4586,2.4594,2.4593,2.4604,2.4604,2.4608,2.4607,2.4609,2.4609,2.4615,2.4612,2.4612,2.4612,2.4612,0,2.448,2.4487,2.4503,2.4509,2.4517,2.4528,2.4535,2.4543,2.4552,2.4559,2.4566,2.4572,2.4581,2.4589,2.4595,2.4603,2.4605,2.4609,2.461,2.4608,2.4608,2.4611,2.4611,2.4612,2.4612,2.4612,2.4612,0,2.4474,2.4485,2.4497,2.4512,2.4516,2.4522,2.4535,2.4541,2.4548,2.4558,2.456,2.4572,2.4581,2.459,2.4601,2.4605,2.4615,2.4616,2.4612,2.4612,2.4616,2.4616,2.4624,2.4626,2.4621,2.4621,2.4621,0,2.4474,2.448,2.4497,2.4503,2.4511,2.452,2.4527,2.4538,2.4545,2.4558,2.4562,2.4573,2.4582,2.4597,2.4606,2.4615,2.4617,2.462,2.4618,2.4617,2.4618,2.4617,2.4618,2.4619,2.4619,2.4619,2.4619,0,2.4472,2.4478,2.4488,2.4502,2.451,2.452,2.4531,2.4535,2.4548,2.4555,2.4566,2.4573,2.4587,2.4598,2.4609,2.4615,2.4619,2.462,2.4621,2.4619,2.4617,2.4619,2.4612,2.4619,2.4619,2.4619,2.4619,2.4619,2.4469,2.4476,2.449,2.4502,2.4511,2.4521,2.4529,2.4538,2.4548,2.4562,2.4567,2.4579,2.459,2.4606,2.4612,2.4621,2.4621,2.4623,2.4624,2.4624,2.4624,2.4616,2.4623,2.4623,2.4623,2.4623,2.4623,0,2.4468,2.4479,2.449,2.4505,2.4515,2.4521,2.4533,2.454,2.4551,2.4562,2.4572,2.4585,2.4596,2.4607,2.4618,2.4623,2.4626,2.4626,2.4626,2.4627,2.4623,2.4621,2.4624,2.4624,2.4624,2.4624,2.4624,2.4624,2.4469,2.4481,2.4489,2.4506,2.4516,2.4529,2.4536,2.4545,2.4554,2.457,2.458,2.4588,2.4599,2.4611,2.4622,2.4625,2.4629,2.4629,2.4632,2.4627,2.4627,2.4627,2.4625,2.4629,2.4629,2.4636,2.4636,2.4636]}]]